Location: Clarks Summit,Pa.
(41.5000°N, 75.6000°W)
Time: 21:06:47
(UTC-05:00)

ISS - Visible Passes

Search period start: 18 February 2018 00:00
Search period end: 28 February 2018 00:00
Orbit: 403 x 407 km, 51.6° (Epoch: 19 February)

Date Brightness Start Highest point End Pass type
(mag) Time Alt. Az. Time Alt. Az. Time Alt. Az.
25 Feb -1.1 05:50:49 10° S 05:53:16 20° SE 05:55:44 10° E visible
26 Feb -0.6 05:00:40 10° SE 05:01:13 10° SE 05:01:46 10° ESE visible
27 Feb -2.9 05:41:48 10° SW 05:44:57 47° SE 05:48:08 10° ENE visible
